Weather History for Shelbyville, IN

Change the Weather History Date:

Wednesday, December 11, 2013

  Actual Average Record
Temperature  
Mean Temperature 18 °F 33 °F  
Max Temperature 31 °F 40 °F 64 °F (2007)
Min Temperature 5 °F 25 °F 5 °F (2013)
Degree Days  
Heating Degree Days 47 32  
Month to date heating degree days 354 334  
Since 1 July heating degree days 1420 1409  
Cooling Degree Days 0 0  
Month to date cooling degree days 0 0  
Year to date cooling degree days 1179 913  
Moisture  
Dew Point 12 °F    
Average Humidity 75    
Maximum Humidity 92    
Minimum Humidity 58    
Precipitation  
Precipitation T in 0.10 in 0.95 in (2000)
Month to date precipitation 0.55 1.20  
Year to date precipitation 29.79 41.49  
Sea Level Pressure  
Sea Level Pressure 30.42 in    
Wind  
Wind Speed 10 mph (West)    
Max Wind Speed 20 mph    
Max Gust Speed 24 mph    
Visibility 8 miles    
Events Snow    
T = Trace of Precipitation, MM = Missing Value Source: NWS Daily Summary

Daily Weather History Graph

Daily Weather History Graph

Search for Another Location

Airport:

Trip Planner

Search our weather history database for the weather conditions in past years. The results will help you decide how hot, cold, wet, or windy it might be!

Date:

Astronomy

Dec. 11, 2013 Rise Set
Actual Time 7:53 AM EST 5:19 PM EST
Civil Twilight 7:23 AM EST 5:49 PM EST
Nautical Twilight 6:49 AM EST 6:23 PM EST
Astronomical Twilight 6:17 AM EST 6:56 PM EST
Moon 1:51 PM EST (12/11) 2:15 AM EST (12/11)
Length of Visible Light 10h 25m
Length of Day
9h 25m
Waxing Gibbous, 71% of the Moon is Illuminated
Dec 11
Waxing Gibbous
Dec 17
Full
Dec 25
Last Quarter
Jan 1
New
Jan 7
First Quarter

Hourly Weather History & Observations

Time (EST) Temp. Windchill Dew Point Humidity Pressure Visibility Wind Dir Wind Speed Gust Speed Precip Events Conditions
12:53 AM 16.0 °F 7.4 °F 10.0 °F 77% 30.38 in 10.0 mi SW 5.8 mph - N/A   Clear
1:53 AM 10.9 °F 4.7 °F 8.1 °F 88% 30.36 in 9.0 mi SSW 3.5 mph - N/A   Clear
2:53 AM 12.0 °F 2.7 °F 7.0 °F 80% 30.38 in 8.0 mi South 5.8 mph - N/A   Clear
3:53 AM 12.0 °F 4.1 °F 7.0 °F 80% 30.39 in 7.0 mi SSW 4.6 mph - N/A   Clear
4:53 AM 5.0 °F -5.6 °F 1.0 °F 84% 30.36 in 6.0 mi ESE 5.8 mph - N/A   Mostly Cloudy
5:53 AM 9.0 °F 0.6 °F 3.9 °F 80% 30.36 in 7.0 mi SE 4.6 mph - N/A   Clear
6:53 AM 14.0 °F 0.5 °F 9.0 °F 80% 30.37 in 7.0 mi South 11.5 mph - N/A   Clear
7:53 AM 15.1 °F 3.3 °F 10.0 °F 80% 30.38 in 5.0 mi South 9.2 mph - N/A   Haze
8:53 AM 17.1 °F 7.6 °F 12.9 °F 84% 30.37 in 4.0 mi South 6.9 mph - N/A   Clear
9:53 AM 19.9 °F 10.1 °F 16.0 °F 85% 30.38 in 6.0 mi SSW 8.1 mph - N/A   Clear
10:53 AM 19.9 °F 6.7 °F 15.1 °F 81% 30.36 in 6.0 mi South 13.8 mph - N/A   Haze
11:53 AM 24.1 °F 15.2 °F 19.0 °F 81% 30.34 in 7.0 mi SSW 8.1 mph - N/A   Scattered Clouds
12:53 PM 28.0 °F 22.8 °F 19.0 °F 69% 30.33 in 9.0 mi SW 4.6 mph - N/A   Mostly Cloudy
1:53 PM 30.9 °F 20.2 °F 18.0 °F 59% 30.34 in 10.0 mi WNW 15.0 mph - N/A   Scattered Clouds
2:53 PM 30.0 °F 19.1 °F 18.0 °F 61% 30.36 in 10.0 mi WNW 15.0 mph - N/A   Scattered Clouds
3:12 PM 30.0 °F 20.0 °F 19.0 °F 64% 30.32 in 10.0 mi WNW 12.7 mph - N/A   Mostly Cloudy
3:53 PM 28.9 °F 16.9 °F 19.0 °F 67% 30.38 in 10.0 mi NW 17.3 mph - N/A   Overcast
4:53 PM 27.0 °F 14.3 °F 17.1 °F 66% 30.43 in 8.0 mi NNW 17.3 mph - 0.00 in Snow Light Snow
5:53 PM 25.0 °F 13.6 °F 15.1 °F 66% 30.46 in 10.0 mi NW 12.7 mph - 0.00 in   Overcast
6:08 PM 25.0 °F 13.1 °F 15.1 °F 66% 30.42 in 10.0 mi NW 13.8 mph - N/A   Overcast
6:53 PM 24.1 °F 13.1 °F 15.1 °F 69% 30.48 in 10.0 mi NW 11.5 mph - 0.00 in   Overcast
7:53 PM 21.9 °F 10.4 °F 10.9 °F 63% 30.51 in 10.0 mi NW 11.5 mph - N/A   Overcast
8:07 PM 21.9 °F 11.0 °F 12.0 °F 66% 30.47 in 10.0 mi NW 10.4 mph - N/A   Overcast
8:46 PM 19.0 °F 5.6 °F 8.1 °F 62% 30.49 in 10.0 mi WNW 13.8 mph - N/A   Scattered Clouds
8:53 PM 19.0 °F 4.0 °F 8.1 °F 62% 30.54 in 10.0 mi NW 17.3 mph - N/A   Partly Cloudy
9:53 PM 14.0 °F 2.9 °F 5.0 °F 67% 30.55 in 10.0 mi NW 8.1 mph - N/A   Clear
10:53 PM 8.1 °F -3.2 °F 1.9 °F 76% 30.56 in 10.0 mi NW 6.9 mph - N/A   Clear
11:53 PM 12.0 °F 2.7 °F 3.0 °F 67% 30.56 in 10.0 mi West 5.8 mph - N/A   Clear